Location: Bénac
(43.1534°N, 0.0251°E)
Time: 16:45:33
(UTC+00:00)

Daily predictions for brighter satellites

Satellite Brightness Start Highest point End
(mag) Time Altitude Azimuth Time Altitude Azimuth Time Altitude Azimuth
Cosmos 1607 4.4 17:47:29 10° SW 17:53:33 66° NW 17:59:44 10° NNE
Radarsat Rocket 4.5 17:48:33 10° SE 17:53:54 38° ENE 17:59:37 10° N
SL-08 R/B 4.4 17:47:45 10° N 17:53:55 75° E 18:00:00 10° SSE
Cosmos 44 Rocket 4.2 17:53:02 10° S 17:57:15 30° ESE 18:01:36 10° NE
YAOGAN 1 2.9 17:54:10 10° SE 17:58:09 40° ENE 18:02:08 10° N
Cosmos 1455 Rocket 4.1 17:55:13 10° NNE 17:58:41 23° ENE 18:02:07 10° SE
PSLV R/B 4.4 17:55:39 10° ESE 17:59:03 25° ENE 18:02:26 10° NNE
Cosmos 2297 Rocket 2.4 17:54:30 10° S 17:59:57 51° ESE 18:05:26 10° NE
Lacrosse 5 rocket 3.4 18:00:03 10° WNW 18:02:10 15° NNW 18:04:19 10° NNE
COSMO-SKYMED 1 3.0 17:58:35 10° NNE 18:02:24 36° E 18:06:10 10° SSE
SPOT 1/Viking Rocket 3.5 17:59:54 10° SSE 18:05:01 85° ENE 18:10:10 10° NNW
CZ-2D R/B 3.7 18:04:19 10° SE 18:07:59 42° ENE 18:11:46 10° N
Aureole 3 Rocket 3.1 18:05:40 10° N 18:09:05 33° ENE 18:11:58 10° SE
Cosmos 2061 Rocket 4.0 18:02:53 10° N 18:09:16 74° E 18:15:32 10° SSE
Cosmos 192 4.5 18:05:26 10° NNW 18:10:19 81° WSW 18:15:11 10° SSE
CZ-4C R/B 2.7 18:07:28 10° WSW 18:11:28 45° NW 18:16:32 10° NNE
Meteor 2-1 Rocket 4.3 18:05:47 10° N 18:11:38 74° E 18:17:32 10° SSE
Okean 1 Rocket 3.0 18:09:48 10° N 18:14:12 69° E 18:18:30 10° SSE
Cosmos 1356 Rocket 3.6 18:10:39 10° NNW 18:14:34 70° W 18:18:32 10° S
Cosmos 2344 4.4 18:10:28 10° S 18:17:18 29° ESE 18:23:20 10° NE
Cosmos 2221 Rocket 3.5 18:13:44 10° S 18:18:11 80° E 18:22:42 10° N
Cosmos 1602 4.5 18:16:55 10° SE 18:18:47 17° E 18:19:20 16° ENE
Okean 2 Rocket 3.1 18:15:03 10° N 18:19:26 88° W 18:23:48 10° S
USA 267 4.1 18:16:34 10° NE 18:22:43 45° NNW 18:28:50 10° W
SJ-6B 3.8 18:20:26 10° ESE 18:22:58 19° ENE 18:25:30 10° NNE
Cosmos 2263 Rocket 3.3 18:24:22 10° SSE 18:28:33 22° E 18:31:43 14° ENE
Cosmos 1025 Rocket 3.7 18:24:33 10° SSW 18:28:47 59° W 18:33:05 10° N
ATLAS 5 CENTAUR R/B 4.2 18:25:25 10° WNW 18:29:21 27° WSW 18:33:58 10° S
Cosmos 1980 3.6 18:25:59 10° NNW 18:31:38 69° ENE 18:37:15 10° SSE
Sich 1 Rocket 3.8 18:29:55 10° NNW 18:34:28 76° W 18:39:00 10° S
COSMOS 2428 3.7 18:29:20 10° NW 18:34:53 52° WSW 18:40:23 10° S
Cosmos 2237 Rocket 2.1 18:31:15 10° NNW 18:36:56 71° ENE 18:42:36 10° SSE
SJ-7 4.0 18:35:40 10° SSE 18:39:20 83° ENE 18:43:01 10° N
Resurs 1-3 4.0 18:35:23 10° S 18:39:39 66° W 18:43:56 10° NNW
Meteor 1-27 4.3 18:33:59 10° N 18:39:44 62° ENE 18:45:29 10° SSE
SeaSat 1 3.3 18:35:58 10° S 18:40:44 54° WSW 18:45:33 10° NW
Cosmos 1570 Rocket 4.0 18:36:00 10° SSW 18:41:17 86° ESE 18:46:34 10° NNE
Resurs 01 Rocket 1.6 18:37:51 10° SSE 18:42:07 55° ENE 18:46:26 10° N
Cosmos 1125 Rocket 3.8 18:38:00 10° NNW 18:43:10 69° WSW 18:48:19 10° S
SPOT 5 4.0 18:45:52 23° E 18:46:41 24° ENE 18:50:39 10° NNE
DMSP B5D1-3 4.4 18:49:45 10° NNE 18:54:53 77° ESE 18:59:59 10° S
Tiangong -1.8 18:51:55 10° WSW 18:55:01 51° S 18:55:41 42° SE
Spot 4 Rocket 4.4 18:52:38 10° S 18:57:42 66° WSW 19:02:47 10° NNW
NOAA 6 4.1 18:52:49 10° SSE 18:57:57 81° WSW 19:03:09 10° NNW
USA 234 4.1 18:52:29 10° SSE 18:58:47 50° SW 19:05:08 10° WNW
Cosmos 2227 Rocket 2.1 18:53:38 10° SSW 18:59:12 66° ESE 19:04:49 10° NNE
Cosmos 773 Rocket 4.1 18:56:54 10° SSW 19:02:10 82° WNW 19:07:29 10° NNE
Cosmos 2208 Rocket 4.0 18:57:10 10° SSW 19:02:23 87° WNW 19:07:43 10° NNE
Cosmos 1346 Rocket 2.6 18:58:59 10° S 19:02:27 49° E 19:02:49 46° ENE
SL-16 R/B 2.8 18:57:34 10° N 19:02:42 34° NE 19:03:58 31° E
CARTOSAT-1 3.9 18:58:45 10° S 19:02:55 64° W 19:07:06 10° NNW
BREEZE-M DEB (TANK) 4.3 19:14:28 10° WNW 19:18:42 88° NNE 19:26:43 24° ESE
ARIANE 6 FM1 Upper Stage 4.2 19:19:01 10° NNW 19:21:05 21° N 19:21:05 21° N
Gbstr 26 Del rocket 4.2 19:16:38 10° SW 19:23:16 65° SE 19:26:28 36° ENE
Terra 4.2 19:30:49 10° NNE 19:30:49 10° NNE 19:30:54 10° NNE
Cosmos 1816 Rocket 4.4 19:22:02 10° S 19:28:11 89° E 19:34:26 10° N
CZ-4B DEB 4.5 19:29:07 44° ENE 19:29:07 44° ENE 19:33:57 10° N
Atlas Centaur 2 4.1 19:24:35 10° WSW 19:30:44 26° SSW 19:33:53 19° SSE
Helios 1A Rocket 3.1 19:31:19 48° WSW 19:31:19 48° WSW 19:33:55 10° SSW
Cosmos 2150 Rocket 4.1 19:25:54 10° NNW 19:31:02 75° WSW 19:34:58 17° S
Cosmos 1544 Rocket 4.3 19:27:09 10° N 19:30:02 39° NNE 19:30:02 39° NNE
CSL-04 Debris 4.1 19:30:41 52° ESE 19:31:31 58° ENE 19:36:51 10° N
BREEZE-M (TANK) 3.4 19:29:50 10° WNW 19:33:03 72° SSW 19:36:14 33° SE
Cosmos 2298 Rocket 4.1 19:29:00 10° NNW 19:34:18 75° WSW 19:38:04 19° S
Cosmos 1975 Rocket 4.0 19:31:15 10° SSW 19:35:27 47° WNW 19:39:39 10° N
CSL-04 Rocket 3.5 19:35:11 56° SE 19:36:09 68° ENE 19:41:24 10° N
Cosmos 2034 Rocket 3.8 19:30:26 10° N 19:36:38 78° E 19:42:50 10° SSE
NOSS 3-4 (A) 4.0 19:30:06 10° NW 19:37:02 75° WSW 19:43:28 17° SSE
NOSS 3-4 (C) 4.0 19:30:22 10° NW 19:37:21 76° WSW 19:43:37 18° SSE
Cosmos 1782 3.5 19:34:46 10° NNW 19:37:19 41° NW 19:37:19 41° NW
Cosmos 2228 3.8 19:34:40 10° NNW 19:38:43 50° W 19:42:47 10° S
Cosmos 1634 Rocket 4.3 19:37:53 10° N 19:43:03 46° NE 19:43:03 46° NE
Cosmos 2297 Rocket 4.1 19:39:31 10° WSW 19:44:15 27° NW 19:49:00 10° N
DNEPR-1 R/B 4.3 19:48:07 10° NW 19:53:10 70° WSW 19:54:28 52° S
BREEZE-M DEB (TANK) 3.9 19:35:26 10° W 19:54:57 74° N 19:56:30 55° ENE
Cosmos 2219 3.7 19:53:10 10° SSW 19:57:13 47° S 19:57:13 47° S
BREEZE-M DEB (TANK) 3.8 19:57:06 10° WSW 20:01:20 87° SSE 20:04:47 44° ENE
Feng Yun 1-1 Rocket 4.5 20:09:36 66° N 20:09:36 66° N 20:14:38 10° NNW
Cosmos 2263 Rocket 2.7 20:06:24 10° SW 20:11:58 57° WNW 20:13:31 43° N
SPOT 5 4.1 20:24:55 41° WNW 20:24:55 41° WNW 20:29:06 10° NNW
Cosmos 2344 3.9 20:23:30 10° SW 20:31:12 56° NW 20:33:48 38° N
Cosmos 2227 Rocket 4.4 20:39:26 10° W 20:43:44 22° NW 20:47:09 13° N
SL-16 R/B 3.6 20:41:37 10° NW 20:45:53 35° W 20:45:53 35° W
